CW6770 Weather Reports


Display with metric or nautical units.
time (UTC)temp
F
wind
direction
speed
MPH
gust
MPH
rain 1hr
in
rain 24hr
in
rain mn
in
humidity
%
barometer
mb
20210920032027 50 0 0.0 2.0 0.00 0.00 0.00 92 1025.6
20210920031537 50 258 1.0 3.0 0.00 0.00 0.00 92 1025.5
20210920031028 50 258 1.0 3.0 0.00 0.00 0.00 92 1025.7
20210920030532 50 258 1.0 3.0 0.00 0.00 0.00 92 1025.5
20210920030059 51 258 0.0 1.0 0.00 0.00 0.00 91 1025.6
20210920025529 51 0 0.0 2.0 0.00 0.00 0.00 92 1025.6
20210920025027 51 0 0.0 2.0 0.00 0.00 0.00 92 1025.5
20210920024550 51 0 0.0 1.0 0.00 0.00 0.00 91 1025.6
20210920024028 51 0 0.0 2.0 0.00 0.00 0.00 91 1025.4
20210920023526 51 0 0.0 2.0 0.00 0.00 0.00 90 1025.3
20210920023057 51 0 0.0 2.0 0.00 0.00 0.00 90 1025.2
20210920022526 51 258 1.0 2.0 0.00 0.00 0.00 89 1025.3
20210920022026 52 258 1.0 2.0 0.00 0.00 0.00 88 1025.1
20210920021539 52 258 1.0 2.0 0.00 0.00 0.00 88 1025.1
20210920021028 52 258 0.0 2.0 0.00 0.00 0.00 88 1025.1
20210920020526 52 258 0.0 2.0 0.00 0.00 0.00 87 1025.1
20210920020059 52 258 1.0 2.0 0.00 0.00 0.00 87 1025.0
20210920015537 52 258 1.0 2.0 0.00 0.01 0.00 87 1025.0
20210920015036 53 258 1.0 2.0 0.00 0.01 0.00 86 1024.9
20210920014531 53 258 1.0 3.0 0.00 0.01 0.00 85 1024.8
20210920014026 53 258 1.0 3.0 0.00 0.01 0.00 86 1024.9
20210920013528 53 258 1.0 3.0 0.00 0.01 0.00 86 1024.8
20210920013055 53 258 1.0 3.0 0.00 0.01 0.00 87 1024.8
20210920012527 53 258 1.0 2.0 0.00 0.01 0.00 86 1024.9
20210920012037 53 258 1.0 3.0 0.00 0.01 0.00 87 1024.9
20210920011544 53 258 1.0 3.0 0.00 0.01 0.00 87 1024.8
20210920011027 53 258 1.0 3.0 0.00 0.01 0.00 86 1024.9
20210920010528 53 258 2.0 3.0 0.00 0.01 0.00 85 1024.8
20210920010045 53 258 2.0 3.0 0.00 0.01 0.00 85 1024.8
20210920005529 54 258 1.0 3.0 0.00 0.01 0.00 85 1024.8
20210920005027 54 258 1.0 3.0 0.00 0.01 0.00 85 1024.9
20210920004608 54 258 1.0 2.0 0.00 0.01 0.00 85 1024.7
20210920004033 54 258 0.0 2.0 0.00 0.01 0.00 84 1024.7
20210920003526 54 258 1.0 3.0 0.00 0.01 0.00 84 1024.6
20210920003123 55 258 1.0 3.0 0.00 0.01 0.00 83 1024.6
20210920002526 55 258 1.0 3.0 0.00 0.01 0.00 83 1024.5
20210920002030 55 258 1.0 3.0 0.00 0.01 0.00 83 1024.5
20210920001605 55 258 1.0 3.0 0.00 0.01 0.00 82 1024.4
20210920001026 55 258 1.0 3.0 0.00 0.01 0.00 82 1024.1
20210920000529 55 0 1.0 3.0 0.00 0.01 0.00 82 1024.1
20210920000034 55 262 1.0 3.0 0.00 0.01 0.00 82 1023.9
20210919235538 55 262 1.0 3.0 0.00 0.02 0.00 81 1024.0
20210919235027 56 262 1.0 3.0 0.00 0.02 0.00 81 1023.8
20210919234546 56 262 1.0 3.0 0.00 0.02 0.00 80 1023.8
20210919234027 56 262 1.0 3.0 0.00 0.02 0.00 78 1023.7
20210919233539 56 262 2.0 3.0 0.00 0.02 0.00 77 1023.7
20210919233118 56 262 1.0 3.0 0.00 0.02 0.00 77 1023.6
20210919232528 57 262 1.0 3.0 0.00 0.02 0.00 77 1023.5
20210919232039 57 262 1.0 3.0 0.00 0.02 0.00 77 1023.5
20210919231617 57 0 1.0 3.0 0.00 0.02 0.00 76 1023.5
20210919231028 58 262 0.0 2.0 0.00 0.02 0.00 76 1023.4
20210919230531 58 262 0.0 3.0 0.00 0.02 0.00 75 1023.5
20210919230101 59 262 1.0 3.0 0.00 0.02 0.00 74 1023.3
20210919225527 60 262 1.0 3.0 0.00 0.10 0.00 72 1023.2
20210919225036 61 262 0.0 3.0 0.00 0.10 0.00 68 1023.2
20210919224613 61 269 1.0 3.0 0.00 0.10 0.00 66 1023.1
20210919224030 62 269 0.0 3.0 0.00 0.10 0.00 65 1023.0
20210919223527 63 0 0.0 5.0 0.00 0.10 0.00 62 1023.0
20210919223049 63 32 1.0 5.0 0.00 0.10 0.00 61 1022.8
20210919222533 63 136 0.0 6.0 0.00 0.10 0.00 62 1022.8
20210919222038 63 71 1.0 6.0 0.00 0.10 0.00 61 1022.8
20210919221733 64 325 1.0 6.0 0.00 0.10 0.00 61 1022.8
20210919221025 64 0 1.0 6.0 0.00 0.10 0.00 60 1022.7
20210919220535 64 277 1.0 6.0 0.00 0.10 0.00 60 1022.6
20210919220118 64 0 0.0 4.0 0.00 0.10 0.00 60 1022.5
20210919215528 64 255 0.0 5.0 0.00 0.10 0.00 61 1022.4
20210919215025 65 0 1.0 8.0 0.00 0.10 0.00 58 1022.3
20210919214554 65 24 1.0 8.0 0.00 0.10 0.00 58 1022.3
20210919214026 65 0 1.0 8.0 0.00 0.10 0.00 60 1022.2
20210919213531 65 0 1.0 8.0 0.00 0.10 0.00 59 1022.2
20210919213112 65 17 2.0 10.0 0.00 0.10 0.00 59 1022.0
20210919212525 65 12 4.0 10.0 0.00 0.10 0.00 61 1021.9
20210919212032 65 40 3.0 10.0 0.00 0.10 0.00 59 1021.8
20210919211611 65 16 4.0 14.0 0.00 0.10 0.00 58 1021.7
20210919211033 65 46 7.0 14.0 0.00 0.10 0.00 59 1021.6
20210919210537 66 13 5.0 13.0 0.00 0.10 0.00 57 1021.6
20210919210101 66 56 5.0 12.0 0.00 0.10 0.00 58 1021.5
20210919205528 66 38 4.0 11.0 0.00 0.10 0.00 57 1021.7
20210919205026 67 40 3.0 9.0 0.00 0.10 0.00 57 1021.5
20210919204541 66 0 2.0 10.0 0.00 0.10 0.00 57 1021.6
20210919204026 66 36 5.0 13.0 0.00 0.10 0.00 58 1021.6
20210919203530 66 44 4.0 13.0 0.00 0.10 0.00 58 1021.5
20210919203057 66 27 5.0 13.0 0.00 0.10 0.00 59 1021.4
20210919202532 66 54 6.0 13.0 0.00 0.10 0.00 61 1021.4
20210919202029 67 28 5.0 14.0 0.00 0.10 0.00 59 1021.4
20210919201643 67 13 5.0 14.0 0.00 0.10 0.00 58 1021.4
20210919201033 67 32 4.0 11.0 0.00 0.10 0.00 56 1021.3
20210919200531 66 5 4.0 12.0 0.00 0.10 0.00 61 1021.2
20210919200316 66 17 5.0 14.0 0.00 0.10 0.00 61 1021.3
20210919195534 66 44 7.0 14.0 0.00 0.10 0.00 59 1021.3
20210919195039 66 32 9.0 14.0 0.00 0.10 0.00 65 1021.3
20210919194622 66 40 8.0 14.0 0.00 0.10 0.00 62 1021.4
20210919194029 67 38 5.0 15.0 0.00 0.10 0.00 57 1021.4
20210919193531 67 34 4.0 15.0 0.00 0.10 0.00 57 1021.4
20210919193032 66 38 7.0 13.0 0.00 0.10 0.00 60 1021.3
20210919192527 67 28 4.0 14.0 0.00 0.10 0.00 65 1021.3
20210919192035 67 22 8.0 14.0 0.00 0.10 0.00 59 1021.3
20210919191544 67 26 5.0 14.0 0.00 0.10 0.00 61 1021.3
20210919191027 67 20 5.0 18.0 0.00 0.10 0.00 58 1021.1
20210919190528 66 27 11.0 18.0 0.00 0.10 0.00 64 1021.3
20210919190034 67 360 8.0 16.0 0.00 0.10 0.00 61 1021.4
20210919185530 67 29 11.0 16.0 0.00 0.10 0.00 65 1021.4
20210919185026 67 66 4.0 19.0 0.00 0.10 0.00 60 1021.4
20210919184552 67 19 9.0 19.0 0.00 0.10 0.00 60 1021.4
20210919184027 67 49 7.0 17.0 0.00 0.10 0.00 57 1021.3
20210919183527 66 30 11.0 20.0 0.00 0.10 0.00 68 1021.2
20210919183051 67 31 11.0 20.0 0.00 0.10 0.00 63 1021.0
20210919182529 67 55 11.0 18.0 0.00 0.10 0.00 64 1021.1
20210919182028 67 22 9.0 18.0 0.00 0.10 0.00 64 1021.2
20210919181626 67 39 9.0 21.0 0.00 0.10 0.00 61 1021.4
20210919181026 67 32 8.0 21.0 0.00 0.10 0.00 66 1021.3
20210919180531 67 39 11.0 16.0 0.00 0.10 0.00 66 1021.3
20210919180047 67 289 9.0 16.0 0.00 0.10 0.00 60 1021.5
20210919175531 67 30 10.0 19.0 0.00 0.10 0.00 68 1021.3
20210919175034 66 16 13.0 19.0 0.00 0.10 0.00 66 1021.4
20210919174550 67 23 10.0 17.0 0.00 0.10 0.00 66 1021.5
20210919174027 67 19 7.0 15.0 0.00 0.10 0.00 61 1021.5
20210919173536 67 41 7.0 15.0 0.00 0.10 0.00 64 1021.6
20210919173041 66 22 11.0 16.0 0.00 0.10 0.00 72 1021.7
20210919172537 66 30 12.0 17.0 0.00 0.10 0.00 69 1021.6
20210919172027 66 32 12.0 18.0 0.00 0.10 0.00 67 1021.6
20210919171609 66 38 9.0 18.0 0.00 0.10 0.00 66 1021.5
20210919171028 65 35 15.0 19.0 0.00 0.10 0.00 70 1021.6
20210919170531 66 19 13.0 19.0 0.00 0.10 0.00 63 1021.7
20210919170136 66 37 12.0 19.0 0.00 0.10 0.00 66 1021.5
20210919165531 66 24 8.0 14.0 0.00 0.10 0.00 64 1021.6
20210919165030 66 37 8.0 14.0 0.00 0.10 0.00 63 1021.6
20210919164555 66 11 5.0 14.0 0.00 0.10 0.00 61 1021.9
20210919164026 65 17 7.0 15.0 0.00 0.10 0.00 68 1021.8
20210919163531 65 25 11.0 15.0 0.00 0.10 0.00 70 1022.0
20210919163106 65 15 9.0 13.0 0.00 0.10 0.00 72 1021.9
20210919162541 65 19 8.0 15.0 0.00 0.10 0.00 67 1022.0
20210919162037 65 72 9.0 16.0 0.00 0.10 0.00 67 1022.2
20210919161619 65 5 12.0 16.0 0.00 0.10 0.00 72 1022.2
20210919161027 65 55 7.0 18.0 0.00 0.10 0.00 69 1022.2
20210919160535 64 26 12.0 18.0 0.00 0.10 0.00 69 1022.4
20210919160038 64 34 13.0 17.0 0.00 0.10 0.00 72 1022.5
20210919155526 64 23 11.0 16.0 0.00 0.10 0.00 73 1022.4
20210919155026 64 26 10.0 15.0 0.00 0.10 0.00 69 1022.3
20210919154605 63 25 11.0 16.0 0.00 0.10 0.00 72 1022.3
20210919154033 63 20 12.0 16.0 0.00 0.10 0.00 71 1022.4
20210919153541 63 27 12.0 17.0 0.00 0.10 0.00 74 1022.3
20210919153122 63 32 12.0 17.0 0.00 0.10 0.00 71 1022.3
20210919152528 63 36 10.0 15.0 0.00 0.10 0.00 71 1022.4
20210919152028 63 41 9.0 15.0 0.00 0.10 0.00 69 1022.3
20210919151655 63 49 6.0 15.0 0.00 0.10 0.00 68 1022.3
20210919151028 63 5 8.0 15.0 0.00 0.10 0.00 69 1022.3
20210919150533 63 75 9.0 15.0 0.00 0.10 0.00 69 1022.4
20210919150051 63 13 8.0 15.0 0.00 0.10 0.00 70 1022.2
20210919145527 63 44 8.0 16.0 0.00 0.10 0.00 71 1022.2
20210919145232 62 15 9.0 19.0 0.00 0.10 0.00 74 1022.3
20210919144543 62 25 11.0 19.0 0.00 0.10 0.00 73 1022.4
20210919144026 62 30 10.0 18.0 0.00 0.10 0.00 72 1022.3
20210919143527 62 26 8.0 18.0 0.00 0.10 0.00 71 1022.4
20210919143044 62 38 8.0 16.0 0.00 0.10 0.00 72 1022.3
20210919142530 61 24 10.0 16.0 0.00 0.10 0.00 74 1022.2
20210919142036 61 62 8.0 15.0 0.00 0.10 0.00 70 1022.2
20210919141549 61 36 10.0 15.0 0.00 0.10 0.00 72 1022.3
20210919141025 61 30 11.0 15.0 0.00 0.10 0.00 72 1022.3
20210919140531 61 38 8.0 15.0 0.00 0.10 0.00 74 1022.2
20210919140037 61 31 6.0 14.0 0.00 0.10 0.00 73 1022.3
20210919135557 61 31 6.0 15.0 0.00 0.10 0.00 72 1022.4
20210919135027 60 19 8.0 16.0 0.00 0.10 0.00 71 1022.3
20210919134600 60 28 7.0 16.0 0.00 0.10 0.00 73 1022.3
20210919134028 60 34 8.0 16.0 0.00 0.10 0.00 73 1022.2
20210919133536 60 15 8.0 15.0 0.00 0.10 0.00 73 1022.1
20210919133056 60 330 8.0 16.0 0.00 0.10 0.00 73 1022.2
20210919132526 60 355 9.0 16.0 0.00 0.10 0.00 74 1022.1
20210919132027 60 27 9.0 15.0 0.00 0.10 0.00 73 1022.1
20210919131559 60 5 11.0 16.0 0.00 0.10 0.00 76 1021.9
20210919131024 59 31 12.0 17.0 0.00 0.10 0.00 75 1021.9
20210919130528 59 10 9.0 17.0 0.00 0.10 0.00 73 1021.8
20210919130037 59 5 9.0 18.0 0.00 0.10 0.00 74 1021.7
20210919125525 59 51 8.0 18.0 0.00 0.10 0.00 73 1021.7
20210919125026 59 5 8.0 16.0 0.00 0.10 0.00 74 1021.7
20210919124634 59 39 8.0 16.0 0.00 0.10 0.00 74 1021.6
20210919124027 59 24 8.0 15.0 0.00 0.10 0.00 73 1021.8
20210919123533 58 38 9.0 19.0 0.00 0.10 0.00 77 1021.8
20210919123042 58 41 10.0 19.0 0.00 0.10 0.00 74 1021.8
20210919122525 58 24 7.0 19.0 0.00 0.10 0.00 75 1021.7
20210919122115 58 34 10.0 19.0 0.00 0.10 0.00 75 1021.5
20210919121546 58 28 10.0 19.0 0.00 0.10 0.00 76 1021.4
20210919121027 57 18 9.0 17.0 0.00 0.10 0.00 75 1021.3
20210919120527 57 355 8.0 18.0 0.00 0.10 0.00 75 1021.3
20210919120038 57 13 10.0 18.0 0.00 0.10 0.00 76 1021.2
20210919115528 57 195 8.0 16.0 0.00 0.10 0.00 76 1021.2
20210919115028 57 40 10.0 16.0 0.00 0.10 0.00 75 1021.1
20210919114617 57 5 6.0 17.0 0.00 0.10 0.00 79 1021.1
20210919114028 56 50 8.0 17.0 0.00 0.10 0.00 77 1021.0
20210919113528 56 32 8.0 17.0 0.00 0.10 0.00 78 1020.9
20210919113120 56 26 10.0 17.0 0.00 0.10 0.00 79 1020.9
20210919112526 56 30 8.0 19.0 0.00 0.10 0.00 79 1020.8
20210919112025 56 29 8.0 19.0 0.00 0.10 0.00 79 1020.6
20210919111628 55 19 8.0 18.0 0.00 0.10 0.00 79 1020.5
20210919111026 55 33 9.0 18.0 0.00 0.10 0.00 80 1020.5
20210919110528 55 27 9.0 16.0 0.00 0.10 0.00 80 1020.4
20210919110042 55 27 9.0 17.0 0.00 0.10 0.00 79 1020.3
20210919105534 55 11 11.0 17.0 0.00 0.11 0.00 81 1020.1
20210919105030 55 11 11.0 17.0 0.00 0.11 0.00 80 1020.2
20210919104549 55 25 9.0 17.0 0.00 0.11 0.00 80 1020.1
20210919104027 55 35 5.0 15.0 0.00 0.11 0.00 80 1020.1
20210919103533 55 32 6.0 15.0 0.00 0.11 0.00 80 1019.8
20210919103109 55 344 9.0 15.0 0.00 0.11 0.00 81 1019.8
20210919102529 55 338 5.0 16.0 0.00 0.11 0.00 80 1019.8
20210919102033 55 59 5.0 16.0 0.00 0.11 0.00 80 1019.8
20210919101605 55 338 6.0 16.0 0.00 0.11 0.00 80 1019.7
20210919101042 55 46 7.0 16.0 0.00 0.11 0.00 80 1019.7
20210919100537 55 84 6.0 15.0 0.00 0.11 0.00 81 1019.5
20210919100039 55 26 4.0 10.0 0.00 0.11 0.00 81 1019.5
20210919095525 55 55 3.0 11.0 0.00 0.11 0.00 81 1019.5
20210919095031 55 52 4.0 12.0 0.00 0.11 0.00 81 1019.3
20210919094555 55 52 3.0 13.0 0.00 0.11 0.00 81 1019.3
20210919094047 55 29 4.0 13.0 0.00 0.11 0.00 81 1019.3
20210919093539 55 24 3.0 13.0 0.00 0.11 0.00 81 1019.3
20210919093037 55 38 5.0 13.0 0.00 0.11 0.00 81 1019.2
20210919092532 56 48 4.0 13.0 0.00 0.11 0.00 81 1019.2
20210919092028 56 306 4.0 13.0 0.00 0.11 0.00 81 1019.2
20210919091600 56 346 7.0 14.0 0.00 0.11 0.00 82 1019.1
20210919091028 56 32 9.0 16.0 0.00 0.11 0.00 82 1018.9
20210919090532 56 30 8.0 16.0 0.00 0.11 0.00 83 1018.9
20210919090058 56 33 8.0 15.0 0.00 0.11 0.00 83 1018.8
20210919085539 56 38 9.0 15.0 0.00 0.11 0.00 83 1018.9
20210919085044 56 54 8.0 13.0 0.00 0.11 0.00 83 1018.7
20210919084554 56 14 6.0 14.0 0.00 0.11 0.00 82 1018.5
20210919084029 56 283 6.0 14.0 0.00 0.11 0.00 83 1018.5
20210919083532 56 17 5.0 12.0 0.00 0.11 0.00 82 1018.3
20210919083054 57 19 5.0 12.0 0.00 0.11 0.00 82 1018.3
20210919082534 57 36 6.0 13.0 0.00 0.11 0.00 82 1018.2
20210919082029 57 27 5.0 16.0 0.00 0.11 0.00 82 1018.2
20210919081541 57 141 5.0 16.0 0.00 0.11 0.00 82 1018.2
20210919081027 57 12 5.0 16.0 0.00 0.11 0.00 82 1018.2
20210919080533 57 49 6.0 13.0 0.00 0.11 0.00 82 1018.4
20210919080054 57 34 6.0 13.0 0.00 0.11 0.00 81 1018.2
20210919075536 57 19 6.0 17.0 0.00 0.11 0.00 81 1018.3
20210919075032 57 23 6.0 17.0 0.00 0.11 0.00 81 1018.3
20210919074600 58 62 6.0 16.0 0.00 0.11 0.00 81 1018.4
20210919074027 58 33 7.0 16.0 0.00 0.11 0.00 81 1018.5
20210919073527 58 12 6.0 15.0 0.00 0.11 0.00 81 1018.4
20210919073113 58 51 5.0 15.0 0.00 0.11 0.00 80 1018.3
20210919072530 59 33 6.0 17.0 0.00 0.11 0.00 80 1018.3
20210919072032 59 34 7.0 17.0 0.00 0.11 0.00 79 1018.2
20210919071543 59 61 8.0 17.0 0.00 0.11 0.00 79 1018.3
20210919071033 59 355 6.0 17.0 0.00 0.11 0.00 79 1018.1
20210919070528 59 85 7.0 17.0 0.00 0.11 0.00 79 1018.0
20210919070050 59 31 8.0 16.0 0.00 0.11 0.00 79 1017.9
20210919065526 59 23 7.0 16.0 0.00 0.11 0.00 80 1018.0
20210919065039 60 40 7.0 16.0 0.00 0.11 0.00 80 1018.0
20210919064650 60 352 7.0 16.0 0.00 0.11 0.00 79 1018.0
20210919064032 60 71 5.0 16.0 0.00 0.11 0.00 80 1018.0
20210919063528 60 53 5.0 16.0 0.00 0.11 0.00 80 1017.9
20210919063101 60 35 5.0 13.0 0.00 0.11 0.00 79 1017.9
20210919062529 61 43 6.0 15.0 0.00 0.11 0.00 80 1017.9
20210919062026 61 11 8.0 17.0 0.00 0.11 0.00 81 1017.8
20210919061611 61 33 10.0 18.0 0.00 0.11 0.00 80 1017.8
20210919061027 61 25 10.0 18.0 0.00 0.11 0.00 81 1017.7
20210919060528 61 38 12.0 17.0 0.00 0.11 0.00 81 1017.7
20210919060037 61 45 10.0 17.0 0.00 0.11 0.00 82 1017.8
20210919055526 61 32 10.0 16.0 0.00 0.11 0.00 81 1017.8
20210919055041 61 53 7.0 16.0 0.00 0.11 0.00 80 1017.9
20210919054604 61 34 5.0 13.0 0.00 0.11 0.00 80 1018.0
20210919054032 62 38 5.0 13.0 0.00 0.11 0.00 80 1017.9
20210919053539 62 302 4.0 13.0 0.00 0.11 0.00 80 1017.9
20210919053041 62 46 4.0 17.0 0.00 0.11 0.00 80 1017.7
20210919052526 62 24 6.0 17.0 0.00 0.11 0.00 80 1017.8
20210919052030 62 32 6.0 13.0 0.00 0.11 0.00 79 1017.8
20210919051630 62 37 4.0 15.0 0.00 0.11 0.00 79 1018.0
20210919051026 62 55 5.0 15.0 0.00 0.11 0.00 79 1018.0
20210919050527 62 49 4.0 11.0 0.00 0.11 0.00 80 1017.9
20210919050040 62 38 3.0 9.0 0.00 0.11 0.00 80 1017.8
20210919045538 62 53 2.0 11.0 0.00 0.11 0.00 79 1018.0
20210919045036 62 35 4.0 14.0 0.00 0.11 0.00 79 1017.9
20210919044547 63 45 6.0 14.0 0.00 0.11 0.00 79 1017.8
20210919044026 63 37 5.0 15.0 0.00 0.11 0.00 79 1017.8
20210919043531 63 26 8.0 15.0 0.00 0.11 0.00 80 1017.7
20210919043058 63 24 6.0 14.0 0.00 0.11 0.00 78 1017.7
20210919042526 63 34 4.0 13.0 0.00 0.11 0.00 79 1017.8
20210919042027 63 82 3.0 13.0 0.00 0.11 0.00 78 1017.9
20210919041533 63 44 1.0 19.0 0.00 0.11 0.00 77 1018.0
20210919041058 63 51 3.0 19.0 0.00 0.11 0.00 77 1018.0
20210919040531 63 41 5.0 12.0 0.00 0.11 0.00 78 1017.9
20210919040101 63 24 4.0 11.0 0.00 0.11 0.00 78 1018.0
20210919035533 63 0 3.0 11.0 0.00 0.11 0.11 78 1017.9
20210919035026 64 5 1.0 18.0 0.00 0.11 0.11 78 1017.7
20210919034611 64 40 11.0 18.0 0.00 0.11 0.11 81 1017.6
20210919034037 64 25 13.0 18.0 0.00 0.11 0.11 81 1017.3
20210919033526 64 26 9.0 13.0 0.00 0.11 0.11 83 1017.5
20210919033059 64 17 5.0 11.0 0.00 0.11 0.11 81 1017.6
20210919032527 64 39 8.0 11.0 0.00 0.11 0.11 83 1017.6